CZ-6A DEB, 54514

Orbit data source: Space-Track

CZ-6A DEB, 54514 is space debris in SSO originally from a launch on Fri, 11 Nov 2022 UTC launched from the Taiyaun Space Center, China (TSC). Debris objects in space refer to the collection of defunct objects orbiting the Earth. Examples of debris include non-operational satellites, rocket bodies, and fragments generated from explosions, collisions, or faulty payload assembly.

Loading next visibility...
Identifier
54514, 2022-151JS
Orbit
SSO
Country
Flag of CNCN / PRC
Related business
Manufacturer
SAST
Mission
Spacecraft
Bus & Motor
Unknown
Mass
Unknown
Launch date (UTC)
2022-11-11 (4 years ago)
Launch vehicle
Unknown
Launch site
Taiyaun Space Center, China (TSC)
Object type
Payload
Rocket body
Debris
Shape & HBR
Unknown shape, 0.1 m
Radar Cross Section
Medium (>0.1 m² and <1 m²)

Expand to show TLE details & history
Last TLE update: 17 hours ago

TLE from 17 hours ago
0 CZ-6A DEB
1 54514U 22151JS  26264.11609646  .00000258  00000-0  98040-4 0  9993
2 54514  98.6717 311.3119 0077446  31.2844 329.2917 14.37438945201989
Epoch: 2026-09-21T02:47Z
TLE epoch observation values (Epoch: 2026-09-21T02:47:10.734Z)
Latitude
0.00001°
Longitude
-90.48337°
Altitude
722.439 km
Speed
7.519 km/s
True Right ascension
20h 45m 14s
True Declination
0° 00' 00"
Sunlit
Object was in full shadow at epoch
Visualization orbit readout
Latitude
Unknown
Longitude
Unknown
Altitude
Unknown
Speed
Unknown
Apparent Right ascension
Unknown
Apparent Declination
Unknown
Sunlit
N/A
Visualization observer readout
Local Sidereal Time
12:52:32
Azimuth
Unknown
Elevation
Unknown
Doppler factor
Unknown
Orbital elements
Apogee altitude
819.42 km
Perigee altitude
708.792 km
Semi-major axis
7,142.243 km
Eccentricity
0.00774
Inclination
98.6717°
RAAN
311.3119°
Arg. of periapsis
31.2844°
True anomaly
328.8347°
Mean anomaly
329.2917°
Eccentric anomaly
329.06358°
Mean motion
3.59576 °/min
Orbital period
100.12 mins
BSTAR
0.00009804
Loading maneuver chart data...
Computing Atmospheric mass density...
Loading historical data...
Loading historical data...
Loading historical data...
Loading historical data...
Loading historical data...
Loading historical data...
Loading historical data...

Documentation

Showing up to 5 results
|